Time,TemperatureF,DewpointF,PressureIn,WindDirection,WindDirectionDegrees,WindSpeedMPH,WindSpeedGustMPH,Humidity,HourlyPrecipIn,Conditions,Clouds,dailyrainin,SolarRadiationWatts/m^2,SoftwareType,DateUTC
2013-04-26 00:02:00,62.8,41.7,30.00,SW,222,6.0,20.0,46,0.00,,,0.00,0.0,meteohub,2013-04-26 07:02:00,
2013-04-26 00:07:00,62.6,41.5,30.00,SW,215,5.0,20.0,46,0.00,,,0.00,0.0,meteohub,2013-04-26 07:07:00,
2013-04-26 00:12:00,62.8,41.7,30.00,SW,217,7.0,20.0,46,0.00,,,0.00,0.0,meteohub,2013-04-26 07:12:00,
2013-04-26 00:17:00,62.8,41.7,30.00,SW,220,6.0,20.0,46,0.00,,,0.00,0.0,meteohub,2013-04-26 07:17:00,
2013-04-26 00:22:00,62.4,41.4,30.00,SW,231,9.0,20.0,46,0.00,,,0.00,0.0,meteohub,2013-04-26 07:22:00,
2013-04-26 00:27:00,62.4,41.9,30.00,SW,225,12.0,20.0,47,0.00,,,0.00,0.0,meteohub,2013-04-26 07:27:00,
2013-04-26 00:32:00,62.2,41.7,30.00,SW,225,8.0,20.0,47,0.00,,,0.00,0.0,meteohub,2013-04-26 07:32:00,
2013-04-26 00:37:00,62.2,41.7,30.00,SSW,211,8.0,20.0,47,0.00,,,0.00,0.0,meteohub,2013-04-26 07:37:00,
2013-04-26 00:42:00,62.2,41.7,30.00,SW,220,7.0,20.0,47,0.00,,,0.00,0.0,meteohub,2013-04-26 07:42:00,
2013-04-26 00:47:00,62.2,41.2,30.00,SW,225,6.0,20.0,46,0.00,,,0.00,0.0,meteohub,2013-04-26 07:47:00,
2013-04-26 00:52:00,62.2,41.2,30.00,SW,223,4.0,20.0,46,0.00,,,0.00,0.0,meteohub,2013-04-26 07:52:00,
2013-04-26 00:57:00,62.2,41.2,30.00,SW,228,8.0,20.0,46,0.00,,,0.00,0.0,meteohub,2013-04-26 07:57:00,
2013-04-26 01:02:00,62.1,41.5,30.00,SW,222,4.0,20.0,47,0.00,,,0.00,0.0,meteohub,2013-04-26 08:02:00,
2013-04-26 01:07:00,62.1,41.5,30.00,SW,230,7.0,20.0,47,0.00,,,0.00,0.0,meteohub,2013-04-26 08:07:00,
2013-04-26 01:12:00,62.1,41.5,30.00,SW,215,10.0,20.0,47,0.00,,,0.00,0.0,meteohub,2013-04-26 08:12:00,
2013-04-26 01:17:00,61.9,41.4,30.00,SW,221,4.0,20.0,47,0.00,,,0.00,0.0,meteohub,2013-04-26 08:17:00,
2013-04-26 01:22:00,61.7,41.2,30.00,SW,217,13.0,20.0,47,0.00,,,0.00,0.0,meteohub,2013-04-26 08:22:00,
2013-04-26 01:27:00,61.9,41.4,30.00,SW,225,10.0,20.0,47,0.00,,,0.00,0.0,meteohub,2013-04-26 08:27:00,
2013-04-26 01:32:00,61.7,41.2,30.00,WSW,248,8.0,20.0,47,0.00,,,0.00,0.0,meteohub,2013-04-26 08:32:00,
2013-04-26 01:37:00,61.7,41.2,30.00,SW,221,0.0,20.0,47,0.00,,,0.00,0.0,meteohub,2013-04-26 08:37:00,
2013-04-26 01:42:00,61.5,41.7,30.00,SW,223,5.0,20.0,48,0.00,,,0.00,0.0,meteohub,2013-04-26 08:42:00,
2013-04-26 01:48:00,61.3,41.5,30.00,SW,221,1.0,20.0,48,0.00,,,0.00,0.0,meteohub,2013-04-26 08:48:00,
2013-04-26 01:53:00,61.2,41.4,30.00,SW,221,0.0,20.0,48,0.00,,,0.00,0.0,meteohub,2013-04-26 08:53:00,
2013-04-26 01:58:00,60.8,41.5,30.00,SW,221,7.0,20.0,49,0.00,,,0.00,0.0,meteohub,2013-04-26 08:58:00,
2013-04-26 02:03:00,60.4,41.7,30.00,SW,221,2.0,14.0,50,0.00,,,0.00,0.0,meteohub,2013-04-26 09:03:00,
2013-04-26 02:08:00,60.3,41.5,30.00,SW,223,0.0,14.0,50,0.00,,,0.00,0.0,meteohub,2013-04-26 09:08:00,
2013-04-26 02:13:00,60.1,41.4,30.00,SW,223,0.0,14.0,50,0.00,,,0.00,0.0,meteohub,2013-04-26 09:13:00,
2013-04-26 02:18:00,59.9,41.7,30.00,SW,221,0.0,14.0,51,0.00,,,0.00,0.0,meteohub,2013-04-26 09:18:00,
2013-04-26 02:23:00,59.7,41.5,30.00,SW,221,0.0,14.0,51,0.00,,,0.00,0.0,meteohub,2013-04-26 09:23:00,
2013-04-26 02:28:00,59.5,41.4,30.00,SW,223,0.0,14.0,51,0.00,,,0.00,0.0,meteohub,2013-04-26 09:28:00,
2013-04-26 02:33:00,59.4,41.7,30.01,SW,223,0.0,14.0,52,0.00,,,0.00,0.0,meteohub,2013-04-26 09:33:00,
2013-04-26 02:38:00,59.4,41.7,30.00,SW,223,4.0,14.0,52,0.00,,,0.00,0.0,meteohub,2013-04-26 09:38:00,
2013-04-26 02:43:00,59.4,41.2,30.00,SW,223,0.0,14.0,51,0.00,,,0.00,0.0,meteohub,2013-04-26 09:43:00,
2013-04-26 02:48:00,59.4,41.2,30.00,SW,223,1.0,14.0,51,0.00,,,0.00,0.0,meteohub,2013-04-26 09:48:00,
2013-04-26 02:53:00,59.4,41.2,30.00,SW,223,0.0,14.0,51,0.00,,,0.00,0.0,meteohub,2013-04-26 09:53:00,
2013-04-26 02:58:00,59.5,41.4,30.00,SW,221,1.0,14.0,51,0.00,,,0.00,0.0,meteohub,2013-04-26 09:58:00,
2013-04-26 03:03:00,59.5,41.4,30.00,SW,221,0.0,14.0,51,0.00,,,0.00,0.0,meteohub,2013-04-26 10:03:00,
2013-04-26 03:08:00,59.5,41.4,30.00,SW,221,2.0,14.0,51,0.00,,,0.00,0.0,meteohub,2013-04-26 10:08:00,
2013-04-26 03:13:00,59.5,40.8,30.00,SW,223,0.0,8.0,50,0.00,,,0.00,0.0,meteohub,2013-04-26 10:13:00,
2013-04-26 03:18:00,59.5,40.8,30.00,SW,223,3.0,8.0,50,0.00,,,0.00,0.0,meteohub,2013-04-26 10:18:00,
2013-04-26 03:23:00,59.5,40.8,30.00,SW,224,0.0,8.0,50,0.00,,,0.00,0.0,meteohub,2013-04-26 10:23:00,
2013-04-26 03:28:00,59.5,40.8,30.00,SW,222,0.0,8.0,50,0.00,,,0.00,0.0,meteohub,2013-04-26 10:28:00,
2013-04-26 03:33:00,59.4,41.2,30.00,SW,221,0.0,8.0,51,0.00,,,0.00,0.0,meteohub,2013-04-26 10:33:00,
2013-04-26 03:38:00,59.0,41.4,30.01,SW,221,0.0,8.0,52,0.00,,,0.00,0.0,meteohub,2013-04-26 10:38:00,
2013-04-26 03:43:00,58.6,41.0,30.00,SW,221,0.0,8.0,52,0.00,,,0.00,0.0,meteohub,2013-04-26 10:43:00,
2013-04-26 03:48:00,58.5,41.4,30.01,SW,222,0.0,8.0,53,0.00,,,0.00,0.0,meteohub,2013-04-26 10:48:00,
2013-04-26 03:53:00,58.3,41.2,30.01,SW,221,0.0,8.0,53,0.00,,,0.00,0.0,meteohub,2013-04-26 10:53:00,
2013-04-26 03:58:00,58.1,41.5,30.01,SW,222,0.0,8.0,54,0.00,,,0.00,0.0,meteohub,2013-04-26 10:58:00,
2013-04-26 04:03:00,57.9,41.4,30.01,SW,222,0.0,0.0,54,0.00,,,0.00,0.0,meteohub,2013-04-26 11:03:00,
2013-04-26 04:08:00,57.7,41.2,30.01,SW,222,0.0,0.0,54,0.00,,,0.00,0.0,meteohub,2013-04-26 11:08:00,
2013-04-26 04:13:00,57.4,41.4,30.01,SW,222,0.0,0.0,55,0.00,,,0.00,0.0,meteohub,2013-04-26 11:13:00,
2013-04-26 04:18:00,57.0,41.0,30.01,SW,222,0.0,0.0,55,0.00,,,0.00,0.0,meteohub,2013-04-26 11:18:00,
2013-04-26 04:23:00,56.5,41.0,30.01,SW,221,0.0,0.0,56,0.00,,,0.00,0.0,meteohub,2013-04-26 11:23:00,
2013-04-26 04:29:00,55.9,41.0,30.02,SW,221,0.0,0.0,57,0.00,,,0.00,0.0,meteohub,2013-04-26 11:29:00,
2013-04-26 04:34:00,55.6,41.0,30.02,SW,222,0.0,0.0,58,0.00,,,0.00,0.0,meteohub,2013-04-26 11:34:00,
2013-04-26 04:39:00,55.4,41.4,30.01,SW,222,0.0,0.0,59,0.00,,,0.00,0.0,meteohub,2013-04-26 11:39:00,
2013-04-26 04:44:00,54.9,41.7,30.02,SW,221,0.0,0.0,61,0.00,,,0.00,0.0,meteohub,2013-04-26 11:44:00,
2013-04-26 04:49:00,54.7,41.5,30.01,SW,222,0.0,0.0,61,0.00,,,0.00,0.0,meteohub,2013-04-26 11:49:00,
2013-04-26 04:54:00,54.7,41.5,30.02,SW,222,0.0,0.0,61,0.00,,,0.00,0.0,meteohub,2013-04-26 11:54:00,
2013-04-26 04:59:00,54.3,41.5,30.02,SW,221,0.0,0.0,62,0.00,,,0.00,0.0,meteohub,2013-04-26 11:59:00,
2013-04-26 05:04:00,54.0,41.2,30.02,SW,221,0.0,0.0,62,0.00,,,0.00,0.0,meteohub,2013-04-26 12:04:00,
2013-04-26 05:09:00,53.8,41.5,30.02,SW,221,0.0,0.0,63,0.00,,,0.00,0.0,meteohub,2013-04-26 12:09:00,
2013-04-26 05:14:00,53.8,41.9,30.02,SW,222,0.0,0.0,64,0.00,,,0.00,0.0,meteohub,2013-04-26 12:14:00,
2013-04-26 05:19:00,53.1,41.5,30.02,SW,222,0.0,0.0,65,0.00,,,0.00,0.0,meteohub,2013-04-26 12:19:00,
2013-04-26 05:24:00,52.5,41.5,30.02,SW,221,0.0,0.0,66,0.00,,,0.00,0.0,meteohub,2013-04-26 12:24:00,
2013-04-26 05:29:00,52.7,41.7,30.02,SW,221,0.0,0.0,66,0.00,,,0.00,0.0,meteohub,2013-04-26 12:29:00,
2013-04-26 05:34:00,52.9,41.9,30.02,SW,222,0.0,0.0,66,0.00,,,0.00,0.0,meteohub,2013-04-26 12:34:00,
2013-04-26 05:39:00,52.9,41.9,30.02,SW,222,0.0,0.0,66,0.00,,,0.00,0.0,meteohub,2013-04-26 12:39:00,
2013-04-26 05:44:00,52.9,42.3,30.03,SW,222,0.0,0.0,67,0.00,,,0.00,0.0,meteohub,2013-04-26 12:44:00,
2013-04-26 05:49:00,52.9,42.3,30.03,SW,222,0.0,0.0,67,0.00,,,0.00,0.0,meteohub,2013-04-26 12:49:00,
2013-04-26 05:54:00,52.9,42.3,30.02,SW,222,0.0,0.0,67,0.00,,,0.00,0.0,meteohub,2013-04-26 12:54:00,
2013-04-26 05:59:00,53.1,42.1,30.02,SW,222,0.0,0.0,66,0.00,,,0.00,0.0,meteohub,2013-04-26 12:59:00,
2013-04-26 06:04:00,52.9,42.3,30.03,SW,221,0.0,0.0,67,0.00,,,0.00,0.0,meteohub,2013-04-26 13:04:00,
2013-04-26 06:09:00,52.9,42.3,30.03,SW,222,0.0,0.0,67,0.00,,,0.00,5.0,meteohub,2013-04-26 13:09:00,
2013-04-26 06:14:00,52.3,42.4,30.04,SW,221,0.0,0.0,69,0.00,,,0.00,7.0,meteohub,2013-04-26 13:14:00,
2013-04-26 06:19:00,52.2,42.3,30.04,SW,221,0.0,0.0,69,0.00,,,0.00,11.0,meteohub,2013-04-26 13:19:00,
2013-04-26 06:24:00,52.0,42.1,30.04,SW,221,0.0,0.0,69,0.00,,,0.00,16.0,meteohub,2013-04-26 13:24:00,
2013-04-26 06:29:00,51.6,42.1,30.04,SW,221,0.0,0.0,70,0.00,,,0.00,19.0,meteohub,2013-04-26 13:29:00,
2013-04-26 06:34:00,52.0,42.8,30.04,SW,222,0.0,0.0,71,0.00,,,0.00,23.0,meteohub,2013-04-26 13:34:00,
2013-04-26 06:39:00,52.5,42.6,30.04,SW,221,0.0,0.0,69,0.00,,,0.00,28.0,meteohub,2013-04-26 13:39:00,
2013-04-26 06:44:00,53.1,42.8,30.04,SW,222,0.0,0.0,68,0.00,,,0.00,39.0,meteohub,2013-04-26 13:44:00,
2013-04-26 06:49:00,53.8,43.2,30.04,SW,222,0.0,0.0,67,0.00,,,0.00,46.0,meteohub,2013-04-26 13:49:00,
2013-04-26 06:54:00,54.1,43.3,30.05,SW,221,0.0,0.0,67,0.00,,,0.00,58.0,meteohub,2013-04-26 13:54:00,
2013-04-26 06:59:00,54.3,43.5,30.05,SW,222,0.0,0.0,67,0.00,,,0.00,72.0,meteohub,2013-04-26 13:59:00,
2013-04-26 07:04:00,55.4,43.9,30.05,SW,222,0.0,0.0,65,0.00,,,0.00,88.0,meteohub,2013-04-26 14:04:00,
2013-04-26 07:09:00,56.1,44.1,30.06,SW,222,0.0,0.0,64,0.00,,,0.00,104.0,meteohub,2013-04-26 14:09:00,
2013-04-26 07:14:00,56.8,44.4,30.06,SW,222,0.0,0.0,63,0.00,,,0.00,121.0,meteohub,2013-04-26 14:14:00,
2013-04-26 07:19:00,57.6,45.1,30.06,SW,222,0.0,0.0,63,0.00,,,0.00,141.0,meteohub,2013-04-26 14:19:00,
2013-04-26 07:24:00,58.3,45.0,30.06,SW,222,0.0,0.0,61,0.00,,,0.00,160.0,meteohub,2013-04-26 14:24:00,
2013-04-26 07:29:00,58.8,44.1,30.06,SW,222,0.0,0.0,58,0.00,,,0.00,176.0,meteohub,2013-04-26 14:29:00,
2013-04-26 07:34:00,59.5,44.2,30.06,SW,222,0.0,0.0,57,0.00,,,0.00,195.0,meteohub,2013-04-26 14:34:00,
2013-04-26 07:39:00,60.4,44.6,30.06,SW,222,0.0,0.0,56,0.00,,,0.00,211.0,meteohub,2013-04-26 14:39:00,
2013-04-26 07:44:00,61.0,44.8,30.06,SW,222,0.0,0.0,55,0.00,,,0.00,229.0,meteohub,2013-04-26 14:44:00,
2013-04-26 07:49:00,61.5,45.1,30.07,SW,222,0.0,0.0,55,0.00,,,0.00,244.0,meteohub,2013-04-26 14:49:00,
2013-04-26 07:54:00,62.1,44.8,30.07,SW,222,0.0,0.0,53,0.00,,,0.00,264.0,meteohub,2013-04-26 14:54:00,
2013-04-26 07:59:00,62.2,44.4,30.07,SW,221,0.0,0.0,52,0.00,,,0.00,281.0,meteohub,2013-04-26 14:59:00,
2013-04-26 08:04:00,62.2,43.9,30.07,SW,222,0.0,0.0,51,0.00,,,0.00,299.0,meteohub,2013-04-26 15:04:00,
2013-04-26 08:09:00,62.4,44.6,30.07,SW,222,0.0,0.0,52,0.00,,,0.00,316.0,meteohub,2013-04-26 15:09:00,
2013-04-26 08:14:00,63.0,44.6,30.07,SW,222,0.0,0.0,51,0.00,,,0.00,332.0,meteohub,2013-04-26 15:14:00,
2013-04-26 08:19:00,63.7,44.2,30.07,SW,225,0.0,0.0,49,0.00,,,0.00,350.0,meteohub,2013-04-26 15:19:00,
2013-04-26 08:24:00,64.2,44.1,30.07,SW,225,0.0,0.0,48,0.00,,,0.00,369.0,meteohub,2013-04-26 15:24:00,
2013-04-26 08:29:00,64.8,43.0,30.08,SW,225,0.0,0.0,45,0.00,,,0.00,387.0,meteohub,2013-04-26 15:29:00,
2013-04-26 08:34:00,65.5,44.8,30.08,SW,225,0.0,0.0,47,0.00,,,0.00,404.0,meteohub,2013-04-26 15:34:00,
2013-04-26 08:39:00,66.0,44.6,30.08,SW,215,0.0,0.0,46,0.00,,,0.00,422.0,meteohub,2013-04-26 15:39:00,
2013-04-26 08:44:00,66.0,43.5,30.08,SW,215,0.0,0.0,44,0.00,,,0.00,441.0,meteohub,2013-04-26 15:44:00,
2013-04-26 08:49:00,66.0,43.5,30.08,SW,215,0.0,0.0,44,0.00,,,0.00,457.0,meteohub,2013-04-26 15:49:00,
2013-04-26 08:54:00,66.9,43.7,30.08,SW,215,0.0,0.0,43,0.00,,,0.00,473.0,meteohub,2013-04-26 15:54:00,
2013-04-26 08:59:00,67.6,44.4,30.08,SW,215,0.0,0.0,43,0.00,,,0.00,492.0,meteohub,2013-04-26 15:59:00,
2013-04-26 09:05:00,67.8,43.9,30.08,SW,215,0.0,0.0,42,0.00,,,0.00,510.0,meteohub,2013-04-26 16:05:00,
2013-04-26 09:10:00,68.2,44.2,30.08,SW,215,0.0,0.0,42,0.00,,,0.00,526.0,meteohub,2013-04-26 16:10:00,
2013-04-26 09:15:00,68.5,44.6,30.08,SW,215,0.0,0.0,42,0.00,,,0.00,543.0,meteohub,2013-04-26 16:15:00,
2013-04-26 09:20:00,69.3,44.6,30.08,SW,215,0.0,0.0,41,0.00,,,0.00,563.0,meteohub,2013-04-26 16:20:00,
2013-04-26 09:25:00,69.4,44.1,30.08,SW,215,0.0,0.0,40,0.00,,,0.00,578.0,meteohub,2013-04-26 16:25:00,
2013-04-26 09:30:00,70.0,45.1,30.08,SW,215,0.0,0.0,41,0.00,,,0.00,594.0,meteohub,2013-04-26 16:30:00,
2013-04-26 09:35:00,70.3,45.0,30.08,SW,215,0.0,0.0,40,0.00,,,0.00,612.0,meteohub,2013-04-26 16:35:00,
2013-04-26 09:40:00,70.2,43.3,30.08,SW,215,0.0,0.0,38,0.00,,,0.00,624.0,meteohub,2013-04-26 16:40:00,
2013-04-26 09:45:00,70.7,43.2,30.08,SW,215,0.0,0.0,37,0.00,,,0.00,640.0,meteohub,2013-04-26 16:45:00,
2013-04-26 09:50:00,71.1,42.8,30.08,SW,215,0.0,0.0,36,0.00,,,0.00,656.0,meteohub,2013-04-26 16:50:00,
2013-04-26 09:55:00,71.6,42.4,30.08,SW,215,0.0,0.0,35,0.00,,,0.00,671.0,meteohub,2013-04-26 16:55:00,
2013-04-26 10:00:00,71.6,43.9,30.08,SW,215,0.0,0.0,37,0.00,,,0.00,687.0,meteohub,2013-04-26 17:00:00,
2013-04-26 10:05:00,72.3,43.2,30.08,SW,215,2.0,0.0,35,0.00,,,0.00,703.0,meteohub,2013-04-26 17:05:00,
2013-04-26 10:10:00,73.0,43.0,30.08,SW,215,0.0,0.0,34,0.00,,,0.00,717.0,meteohub,2013-04-26 17:10:00,
2013-04-26 10:15:00,72.9,42.8,30.08,SW,215,0.0,0.0,34,0.00,,,0.00,728.0,meteohub,2013-04-26 17:15:00,
2013-04-26 10:20:00,73.9,44.6,30.08,SSW,198,0.0,0.0,35,0.00,,,0.00,744.0,meteohub,2013-04-26 17:20:00,
2013-04-26 10:25:00,74.7,42.8,30.08,SSW,197,0.0,0.0,32,0.00,,,0.00,758.0,meteohub,2013-04-26 17:25:00,
2013-04-26 10:30:00,74.5,43.5,30.08,South,189,0.0,0.0,33,0.00,,,0.00,770.0,meteohub,2013-04-26 17:30:00,
2013-04-26 10:35:00,75.0,43.9,30.08,South,189,0.0,0.0,33,0.00,,,0.00,782.0,meteohub,2013-04-26 17:35:00,
2013-04-26 10:40:00,75.6,44.4,30.08,SE,138,3.0,0.0,33,0.00,,,0.00,796.0,meteohub,2013-04-26 17:40:00,
2013-04-26 10:45:00,75.0,43.2,30.08,ESE,115,0.0,0.0,32,0.00,,,0.00,809.0,meteohub,2013-04-26 17:45:00,
2013-04-26 10:50:00,75.6,42.8,30.08,ESE,115,0.0,5.0,31,0.00,,,0.00,819.0,meteohub,2013-04-26 17:50:00,
2013-04-26 10:55:00,76.3,45.9,30.08,ESE,111,0.0,5.0,34,0.00,,,0.00,831.0,meteohub,2013-04-26 17:55:00,
2013-04-26 11:00:00,75.6,42.8,30.08,ESE,113,0.0,5.0,31,0.00,,,0.00,844.0,meteohub,2013-04-26 18:00:00,
2013-04-26 11:05:00,75.9,43.2,30.08,ESE,113,0.0,5.0,31,0.00,,,0.00,851.0,meteohub,2013-04-26 18:05:00,
2013-04-26 11:10:00,77.2,45.9,30.08,ESE,113,0.0,5.0,33,0.00,,,0.00,861.0,meteohub,2013-04-26 18:10:00,
2013-04-26 11:15:00,76.8,41.2,30.08,ENE,78,0.0,5.0,28,0.00,,,0.00,868.0,meteohub,2013-04-26 18:15:00,
2013-04-26 11:20:00,77.0,42.3,30.08,NE,44,0.0,5.0,29,0.00,,,0.00,881.0,meteohub,2013-04-26 18:20:00,
2013-04-26 11:25:00,77.5,41.0,30.07,East,79,5.0,5.0,27,0.00,,,0.00,893.0,meteohub,2013-04-26 18:25:00,
2013-04-26 11:30:00,78.6,39.9,30.07,ESE,103,0.0,5.0,25,0.00,,,0.00,900.0,meteohub,2013-04-26 18:30:00,
2013-04-26 11:35:00,78.4,41.7,30.08,East,86,0.0,5.0,27,0.00,,,0.00,909.0,meteohub,2013-04-26 18:35:00,
2013-04-26 11:40:00,79.2,40.3,30.07,East,86,0.0,5.0,25,0.00,,,0.00,916.0,meteohub,2013-04-26 18:40:00,
2013-04-26 11:46:00,79.7,40.8,30.07,East,82,0.0,5.0,25,0.00,,,0.00,926.0,meteohub,2013-04-26 18:46:00,
2013-04-26 11:51:00,80.2,40.1,30.07,East,82,0.0,7.0,24,0.00,,,0.00,933.0,meteohub,2013-04-26 18:51:00,
2013-04-26 11:56:00,79.3,39.4,30.07,NNE,25,1.0,7.0,24,0.00,,,0.00,942.0,meteohub,2013-04-26 18:56:00,
2013-04-26 12:01:00,79.3,38.3,30.07,NNE,26,0.0,7.0,23,0.00,,,0.00,947.0,meteohub,2013-04-26 19:01:00,
2013-04-26 12:06:00,80.2,40.1,30.07,East,94,2.0,7.0,24,0.00,,,0.00,949.0,meteohub,2013-04-26 19:06:00,
2013-04-26 12:11:00,80.2,39.0,30.07,East,88,0.0,7.0,23,0.00,,,0.00,953.0,meteohub,2013-04-26 19:11:00,
2013-04-26 12:16:00,80.1,40.1,30.06,NNE,19,2.0,7.0,24,0.00,,,0.00,956.0,meteohub,2013-04-26 19:16:00,
2013-04-26 12:21:00,80.1,37.8,30.06,North,350,0.0,7.0,22,0.00,,,0.00,962.0,meteohub,2013-04-26 19:21:00,
2013-04-26 12:26:00,81.0,37.4,30.06,NNE,32,3.0,7.0,21,0.00,,,0.00,969.0,meteohub,2013-04-26 19:26:00,
2013-04-26 12:31:00,80.8,34.7,30.06,ENE,77,2.0,7.0,19,0.00,,,0.00,970.0,meteohub,2013-04-26 19:31:00,
2013-04-26 12:36:00,81.3,38.8,30.06,ENE,73,3.0,7.0,22,0.00,,,0.00,972.0,meteohub,2013-04-26 19:36:00,
2013-04-26 12:41:00,81.1,38.7,30.06,ENE,71,0.0,7.0,22,0.00,,,0.00,974.0,meteohub,2013-04-26 19:41:00,
2013-04-26 12:46:00,81.7,39.2,30.05,ENE,71,0.0,7.0,22,0.00,,,0.00,972.0,meteohub,2013-04-26 19:46:00,
2013-04-26 12:51:00,82.9,36.5,30.05,ENE,67,0.0,7.0,19,0.00,,,0.00,974.0,meteohub,2013-04-26 19:51:00,
2013-04-26 12:56:00,83.1,36.7,30.05,ESE,108,1.0,7.0,19,0.00,,,0.00,981.0,meteohub,2013-04-26 19:56:00,
2013-04-26 13:01:00,83.1,35.2,30.05,NNE,17,3.0,7.0,18,0.00,,,0.00,979.0,meteohub,2013-04-26 20:01:00,
2013-04-26 13:06:00,82.8,34.9,30.05,NE,36,0.0,7.0,18,0.00,,,0.00,983.0,meteohub,2013-04-26 20:06:00,
2013-04-26 13:11:00,83.7,34.2,30.05,ESE,117,4.0,7.0,17,0.00,,,0.00,981.0,meteohub,2013-04-26 20:11:00,
2013-04-26 13:16:00,83.5,35.6,30.05,ESE,103,1.0,7.0,18,0.00,,,0.00,981.0,meteohub,2013-04-26 20:16:00,
2013-04-26 13:21:00,83.8,32.9,30.05,NE,44,8.0,8.0,16,0.00,,,0.00,977.0,meteohub,2013-04-26 20:21:00,
2013-04-26 13:26:00,83.1,30.7,30.05,North,9,1.0,7.0,15,0.00,,,0.00,974.0,meteohub,2013-04-26 20:26:00,
2013-04-26 13:31:00,83.1,32.4,30.04,NNW,348,5.0,7.0,16,0.00,,,0.00,970.0,meteohub,2013-04-26 20:31:00,
2013-04-26 13:36:00,83.3,30.7,30.04,North,355,0.0,7.0,15,0.00,,,0.00,967.0,meteohub,2013-04-26 20:36:00,
2013-04-26 13:41:00,83.7,29.5,30.04,ENE,75,6.0,7.0,14,0.00,,,0.00,967.0,meteohub,2013-04-26 20:41:00,
2013-04-26 13:46:00,84.0,34.5,30.04,NE,53,2.0,7.0,17,0.00,,,0.00,965.0,meteohub,2013-04-26 20:46:00,
2013-04-26 13:51:00,84.9,28.6,30.04,SE,134,6.0,7.0,13,0.00,,,0.00,965.0,meteohub,2013-04-26 20:51:00,
2013-04-26 13:56:00,85.1,30.6,30.04,ESE,111,2.0,7.0,14,0.00,,,0.00,958.0,meteohub,2013-04-26 20:56:00,
2013-04-26 14:01:00,86.2,34.7,30.04,ESE,120,0.0,13.0,16,0.00,,,0.00,956.0,meteohub,2013-04-26 21:01:00,
2013-04-26 14:06:00,86.5,29.8,30.03,East,88,1.0,13.0,13,0.00,,,0.00,951.0,meteohub,2013-04-26 21:06:00,
2013-04-26 14:11:00,85.3,30.7,30.03,East,86,5.0,13.0,14,0.00,,,0.00,942.0,meteohub,2013-04-26 21:11:00,
2013-04-26 14:16:00,85.6,29.1,30.03,SSE,147,1.0,13.0,13,0.00,,,0.00,933.0,meteohub,2013-04-26 21:16:00,
2013-04-26 14:21:00,86.4,27.7,30.03,SE,127,0.0,13.0,12,0.00,,,0.00,926.0,meteohub,2013-04-26 21:21:00,
2013-04-26 14:26:00,86.4,31.5,30.03,ENE,68,0.0,13.0,14,0.00,,,0.00,918.0,meteohub,2013-04-26 21:26:00,
2013-04-26 14:31:00,87.1,35.4,30.03,ENE,68,1.0,13.0,16,0.00,,,0.00,912.0,meteohub,2013-04-26 21:31:00,
2013-04-26 14:36:00,87.4,30.6,30.02,SE,128,4.0,13.0,13,0.00,,,0.00,905.0,meteohub,2013-04-26 21:36:00,
2013-04-26 14:41:00,87.3,34.0,30.02,SE,127,0.0,13.0,15,0.00,,,0.00,896.0,meteohub,2013-04-26 21:41:00,
2013-04-26 14:46:00,87.3,30.4,30.02,SE,127,0.0,13.0,13,0.00,,,0.00,888.0,meteohub,2013-04-26 21:46:00,
2013-04-26 14:51:00,86.7,33.6,30.02,ESE,123,4.0,13.0,15,0.00,,,0.00,877.0,meteohub,2013-04-26 21:51:00,
2013-04-26 14:56:00,87.3,32.2,30.01,SE,132,0.0,13.0,14,0.00,,,0.00,870.0,meteohub,2013-04-26 21:56:00,
2013-04-26 15:01:00,87.1,33.8,30.01,SSE,153,0.0,13.0,15,0.00,,,0.00,856.0,meteohub,2013-04-26 22:01:00,
2013-04-26 15:06:00,86.2,31.5,30.01,SSE,151,2.0,6.0,14,0.00,,,0.00,844.0,meteohub,2013-04-26 22:06:00,
2013-04-26 15:11:00,86.5,31.6,30.01,SSE,151,0.0,6.0,14,0.00,,,0.00,831.0,meteohub,2013-04-26 22:11:00,
2013-04-26 15:16:00,87.3,30.4,30.01,SSE,151,1.0,6.0,13,0.00,,,0.00,821.0,meteohub,2013-04-26 22:16:00,
2013-04-26 15:22:00,88.2,29.1,30.01,SSE,147,4.0,6.0,12,0.00,,,0.00,810.0,meteohub,2013-04-26 22:22:00,
2013-04-26 15:26:00,87.4,30.6,30.00,WNW,297,0.0,6.0,13,0.00,,,0.00,798.0,meteohub,2013-04-26 22:26:00,
2013-04-26 15:32:00,87.4,30.6,30.00,SE,136,9.0,9.0,13,0.00,,,0.00,784.0,meteohub,2013-04-26 22:32:00,
2013-04-26 15:37:00,87.4,30.6,30.00,SSW,211,0.0,6.0,13,0.00,,,0.00,773.0,meteohub,2013-04-26 22:37:00,
2013-04-26 15:42:00,86.7,30.0,30.00,SSW,209,0.0,6.0,13,0.00,,,0.00,759.0,meteohub,2013-04-26 22:42:00,
2013-04-26 15:47:00,87.3,30.4,30.00,SSW,206,3.0,6.0,13,0.00,,,0.00,744.0,meteohub,2013-04-26 22:47:00,
2013-04-26 15:52:00,87.4,30.6,29.99,South,191,0.0,6.0,13,0.00,,,0.00,733.0,meteohub,2013-04-26 22:52:00,
2013-04-26 15:57:00,87.6,26.6,29.99,South,178,0.0,6.0,11,0.00,,,0.00,717.0,meteohub,2013-04-26 22:57:00,
2013-04-26 16:02:00,86.9,28.2,29.99,South,178,0.0,6.0,12,0.00,,,0.00,705.0,meteohub,2013-04-26 23:02:00,
2013-04-26 16:07:00,86.2,29.7,29.99,South,178,0.0,8.0,13,0.00,,,0.00,689.0,meteohub,2013-04-26 23:07:00,
2013-04-26 16:12:00,86.7,30.0,29.99,South,178,0.0,8.0,13,0.00,,,0.00,675.0,meteohub,2013-04-26 23:12:00,
2013-04-26 16:17:00,87.1,30.2,29.99,SW,219,5.0,8.0,13,0.00,,,0.00,657.0,meteohub,2013-04-26 23:17:00,
2013-04-26 16:22:00,86.7,30.0,29.99,WSW,256,0.0,8.0,13,0.00,,,0.00,642.0,meteohub,2013-04-26 23:22:00,
2013-04-26 16:27:00,85.5,27.1,29.99,West,261,0.0,8.0,12,0.00,,,0.00,624.0,meteohub,2013-04-26 23:27:00,
2013-04-26 16:32:00,86.0,32.9,29.98,West,262,0.0,8.0,15,0.00,,,0.00,606.0,meteohub,2013-04-26 23:32:00,
2013-04-26 16:37:00,86.4,29.7,29.98,West,264,2.0,8.0,13,0.00,,,0.00,587.0,meteohub,2013-04-26 23:37:00,
2013-04-26 16:42:00,86.5,27.9,29.98,West,264,0.0,8.0,12,0.00,,,0.00,575.0,meteohub,2013-04-26 23:42:00,
2013-04-26 16:47:00,87.1,28.4,29.98,West,265,4.0,8.0,12,0.00,,,0.00,552.0,meteohub,2013-04-26 23:47:00,
2013-04-26 16:52:00,87.3,28.4,29.98,West,265,0.0,8.0,12,0.00,,,0.00,531.0,meteohub,2013-04-26 23:52:00,
2013-04-26 16:54:00,87.4,26.4,29.98,West,265,0.0,8.0,11,0.00,,,0.00,513.0,meteohub,2013-04-26 23:54:00,
2013-04-26 17:06:00,87.3,42.6,29.98,SW,236,3.0,10.0,21,0.00,,,0.00,487.0,meteohub,2013-04-27 00:06:00,
2013-04-26 17:11:00,85.5,42.3,29.98,SW,218,2.0,10.0,22,0.00,,,0.00,464.0,meteohub,2013-04-27 00:11:00,
2013-04-26 17:16:00,85.3,42.1,29.98,SW,217,10.0,10.0,22,0.00,,,0.00,438.0,meteohub,2013-04-27 00:16:00,
2013-04-26 17:21:00,84.7,42.8,29.98,SW,223,14.0,14.0,23,0.00,,,0.00,420.0,meteohub,2013-04-27 00:21:00,
2013-04-26 17:26:00,84.0,44.4,29.98,SW,215,10.0,10.0,25,0.00,,,0.00,404.0,meteohub,2013-04-27 00:26:00,
2013-04-26 17:31:00,83.8,44.2,29.98,SW,217,5.0,10.0,25,0.00,,,0.00,388.0,meteohub,2013-04-27 00:31:00,
2013-04-26 17:36:00,83.3,43.9,29.98,SW,214,10.0,10.0,25,0.00,,,0.00,373.0,meteohub,2013-04-27 00:36:00,
2013-04-26 17:41:00,82.8,44.4,29.98,SSW,205,8.0,10.0,26,0.00,,,0.00,357.0,meteohub,2013-04-27 00:41:00,
2013-04-26 17:46:00,82.8,44.4,29.98,SW,234,11.0,11.0,26,0.00,,,0.00,338.0,meteohub,2013-04-27 00:46:00,
2013-04-26 17:51:00,82.8,43.3,29.98,SW,220,9.0,10.0,25,0.00,,,0.00,320.0,meteohub,2013-04-27 00:51:00,
2013-04-26 17:56:00,82.6,43.2,29.98,SSW,207,4.0,10.0,25,0.00,,,0.00,301.0,meteohub,2013-04-27 00:56:00,
2013-04-26 18:01:00,82.2,43.0,29.98,SW,227,9.0,19.0,25,0.00,,,0.00,279.0,meteohub,2013-04-27 01:01:00,
2013-04-26 18:06:00,81.9,43.7,29.99,SW,228,10.0,19.0,26,0.00,,,0.00,258.0,meteohub,2013-04-27 01:06:00,
2013-04-26 18:11:00,81.1,44.1,29.98,SW,219,0.0,19.0,27,0.00,,,0.00,239.0,meteohub,2013-04-27 01:11:00,
2013-04-26 18:16:00,80.8,43.7,29.98,SW,221,6.0,19.0,27,0.00,,,0.00,218.0,meteohub,2013-04-27 01:16:00,
2013-04-26 18:21:00,80.6,43.5,29.98,WSW,239,7.0,19.0,27,0.00,,,0.00,197.0,meteohub,2013-04-27 01:21:00,
2013-04-26 18:26:00,80.4,44.2,29.99,SW,225,10.0,19.0,28,0.00,,,0.00,178.0,meteohub,2013-04-27 01:26:00,
2013-04-26 18:31:00,80.1,44.1,29.99,SW,227,9.0,19.0,28,0.00,,,0.00,156.0,meteohub,2013-04-27 01:31:00,
2013-04-26 18:36:00,79.9,43.9,29.99,SW,235,8.0,19.0,28,0.00,,,0.00,134.0,meteohub,2013-04-27 01:36:00,
2013-04-26 18:41:00,79.3,44.2,29.99,WSW,255,4.0,19.0,29,0.00,,,0.00,116.0,meteohub,2013-04-27 01:41:00,
2013-04-26 18:46:00,79.2,44.2,29.99,SW,222,8.0,19.0,29,0.00,,,0.00,97.0,meteohub,2013-04-27 01:46:00,
2013-04-26 18:51:00,78.6,43.7,29.99,SW,221,8.0,19.0,29,0.00,,,0.00,79.0,meteohub,2013-04-27 01:51:00,
2013-04-26 18:56:00,78.3,43.3,29.99,SW,230,9.0,19.0,29,0.00,,,0.00,63.0,meteohub,2013-04-27 01:56:00,
2013-04-26 19:01:00,77.7,43.0,29.99,SW,233,11.0,19.0,29,0.00,,,0.00,49.0,meteohub,2013-04-27 02:01:00,
2013-04-26 19:06:00,77.2,43.3,30.00,SW,220,8.0,14.0,30,0.00,,,0.00,37.0,meteohub,2013-04-27 02:06:00,
2013-04-26 19:11:00,76.5,43.5,30.00,SW,232,7.0,14.0,31,0.00,,,0.00,26.0,meteohub,2013-04-27 02:11:00,
2013-04-26 19:16:00,75.7,43.7,30.00,SW,223,6.0,14.0,32,0.00,,,0.00,19.0,meteohub,2013-04-27 02:16:00,
2013-04-26 19:21:00,75.4,44.2,30.01,WSW,255,7.0,14.0,33,0.00,,,0.00,14.0,meteohub,2013-04-27 02:21:00,
2013-04-26 19:27:00,74.8,43.9,30.01,WSW,244,0.0,14.0,33,0.00,,,0.00,11.0,meteohub,2013-04-27 02:27:00,
2013-04-26 19:32:00,74.5,43.5,30.01,SW,233,2.0,14.0,33,0.00,,,0.00,5.0,meteohub,2013-04-27 02:32:00,
2013-04-26 19:37:00,73.8,44.4,30.01,West,270,2.0,14.0,35,0.00,,,0.00,0.0,meteohub,2013-04-27 02:37:00,
2013-04-26 19:42:00,73.0,44.4,30.02,West,267,4.0,14.0,36,0.00,,,0.00,0.0,meteohub,2013-04-27 02:42:00,
2013-04-26 19:47:00,72.3,44.6,30.02,WSW,257,0.0,14.0,37,0.00,,,0.00,0.0,meteohub,2013-04-27 02:47:00,
2013-04-26 19:52:00,72.0,43.5,30.02,West,266,4.0,14.0,36,0.00,,,0.00,0.0,meteohub,2013-04-27 02:52:00,
2013-04-26 19:57:00,71.6,42.4,30.02,West,263,0.0,14.0,35,0.00,,,0.00,0.0,meteohub,2013-04-27 02:57:00,
2013-04-26 20:02:00,71.4,41.5,30.03,West,261,0.0,14.0,34,0.00,,,0.00,0.0,meteohub,2013-04-27 03:02:00,
2013-04-26 20:07:00,71.2,41.4,30.03,WSW,250,2.0,14.0,34,0.00,,,0.00,0.0,meteohub,2013-04-27 03:07:00,
2013-04-26 20:12:00,71.1,41.4,30.03,West,259,2.0,14.0,34,0.00,,,0.00,0.0,meteohub,2013-04-27 03:12:00,
2013-04-26 20:17:00,71.1,40.5,30.03,West,261,4.0,8.0,33,0.00,,,0.00,0.0,meteohub,2013-04-27 03:17:00,
2013-04-26 20:22:00,71.1,40.5,30.04,West,263,1.0,8.0,33,0.00,,,0.00,0.0,meteohub,2013-04-27 03:22:00,
2013-04-26 20:27:00,70.9,41.9,30.04,West,266,4.0,8.0,35,0.00,,,0.00,0.0,meteohub,2013-04-27 03:27:00,
2013-04-26 20:32:00,70.3,42.8,30.04,West,263,7.0,8.0,37,0.00,,,0.00,0.0,meteohub,2013-04-27 03:32:00,
2013-04-26 20:37:00,69.8,43.0,30.04,West,265,2.0,8.0,38,0.00,,,0.00,0.0,meteohub,2013-04-27 03:37:00,
2013-04-26 20:42:00,69.4,44.8,30.04,West,263,0.0,8.0,41,0.00,,,0.00,0.0,meteohub,2013-04-27 03:42:00,
2013-04-26 20:47:00,69.3,45.9,30.04,WSW,257,3.0,8.0,43,0.00,,,0.00,0.0,meteohub,2013-04-27 03:47:00,
2013-04-26 20:52:00,69.3,45.9,30.04,WSW,240,5.0,8.0,43,0.00,,,0.00,0.0,meteohub,2013-04-27 03:52:00,
2013-04-26 20:57:00,69.3,45.9,30.04,WSW,243,7.0,8.0,43,0.00,,,0.00,0.0,meteohub,2013-04-27 03:57:00,
2013-04-26 21:01:00,69.3,45.1,30.05,SW,236,1.0,8.0,42,0.00,,,0.00,0.0,meteohub,2013-04-27 04:01:00,
2013-04-26 21:06:00,69.3,45.1,30.05,WSW,245,11.0,11.0,42,0.00,,,0.00,0.0,meteohub,2013-04-27 04:06:00,
2013-04-26 21:11:00,69.4,44.8,30.05,WSW,237,3.0,8.0,41,0.00,,,0.00,0.0,meteohub,2013-04-27 04:11:00,
2013-04-26 21:16:00,69.6,44.2,30.05,SW,219,6.0,8.0,40,0.00,,,0.00,0.0,meteohub,2013-04-27 04:16:00,
2013-04-26 21:21:00,70.0,43.9,30.05,SW,232,10.0,13.0,39,0.00,,,0.00,0.0,meteohub,2013-04-27 04:21:00,
2013-04-26 21:26:00,70.0,44.6,30.06,SW,234,1.0,13.0,40,0.00,,,0.00,0.0,meteohub,2013-04-27 04:26:00,
2013-04-26 21:31:00,69.6,45.0,30.06,SW,228,10.0,13.0,41,0.00,,,0.00,0.0,meteohub,2013-04-27 04:31:00,
2013-04-26 21:36:00,69.3,45.1,30.06,West,259,5.0,13.0,42,0.00,,,0.00,0.0,meteohub,2013-04-27 04:36:00,
2013-04-26 21:42:00,68.7,44.8,30.06,West,259,1.0,13.0,42,0.00,,,0.00,0.0,meteohub,2013-04-27 04:42:00,
2013-04-26 21:47:00,68.2,44.8,30.06,West,268,4.0,13.0,43,0.00,,,0.00,0.0,meteohub,2013-04-27 04:47:00,
2013-04-26 21:52:00,67.8,45.1,30.06,WSW,252,0.0,13.0,44,0.00,,,0.00,0.0,meteohub,2013-04-27 04:52:00,
2013-04-26 21:57:00,67.8,45.1,30.06,SW,233,5.0,13.0,44,0.00,,,0.00,0.0,meteohub,2013-04-27 04:57:00,
2013-04-26 22:02:00,68.2,44.8,30.06,WSW,238,0.0,13.0,43,0.00,,,0.00,0.0,meteohub,2013-04-27 05:02:00,
2013-04-26 22:07:00,68.2,44.8,30.06,WSW,241,3.0,13.0,43,0.00,,,0.00,0.0,meteohub,2013-04-27 05:07:00,
2013-04-26 22:12:00,68.2,44.8,30.06,SW,233,1.0,13.0,43,0.00,,,0.00,0.0,meteohub,2013-04-27 05:12:00,
2013-04-26 22:17:00,68.2,44.8,30.06,SW,236,4.0,11.0,43,0.00,,,0.00,0.0,meteohub,2013-04-27 05:17:00,
2013-04-26 22:22:00,68.2,44.2,30.06,SW,235,5.0,11.0,42,0.00,,,0.00,0.0,meteohub,2013-04-27 05:22:00,
2013-04-26 22:27:00,68.4,43.7,30.06,SW,235,2.0,11.0,41,0.00,,,0.00,0.0,meteohub,2013-04-27 05:27:00,
2013-04-26 22:32:00,68.2,43.0,30.06,West,261,0.0,11.0,40,0.00,,,0.00,0.0,meteohub,2013-04-27 05:32:00,
2013-04-26 22:37:00,68.2,43.0,30.06,WSW,250,5.0,11.0,40,0.00,,,0.00,0.0,meteohub,2013-04-27 05:37:00,
2013-04-26 22:42:00,68.2,42.3,30.06,WSW,246,1.0,11.0,39,0.00,,,0.00,0.0,meteohub,2013-04-27 05:42:00,
2013-04-26 22:47:00,68.0,42.1,30.06,WSW,248,0.0,11.0,39,0.00,,,0.00,0.0,meteohub,2013-04-27 05:47:00,
2013-04-26 22:52:00,68.2,41.5,30.06,WSW,243,4.0,11.0,38,0.00,,,0.00,0.0,meteohub,2013-04-27 05:52:00,
2013-04-26 22:57:00,68.5,41.9,30.06,SW,233,0.0,11.0,38,0.00,,,0.00,0.0,meteohub,2013-04-27 05:57:00,
2013-04-26 23:02:00,68.5,41.9,30.06,SW,229,2.0,11.0,38,0.00,,,0.00,0.0,meteohub,2013-04-27 06:02:00,
2013-04-26 23:07:00,68.5,41.2,30.06,SW,229,1.0,11.0,37,0.00,,,0.00,0.0,meteohub,2013-04-27 06:07:00,
2013-04-26 23:12:00,68.5,41.2,30.06,SW,232,0.0,10.0,37,0.00,,,0.00,0.0,meteohub,2013-04-27 06:12:00,
2013-04-26 23:17:00,68.4,41.0,30.06,SW,233,4.0,10.0,37,0.00,,,0.00,0.0,meteohub,2013-04-27 06:17:00,
2013-04-26 23:22:00,68.4,41.0,30.06,SW,229,0.0,10.0,37,0.00,,,0.00,0.0,meteohub,2013-04-27 06:22:00,
2013-04-26 23:28:00,68.4,40.3,30.06,SW,229,0.0,10.0,36,0.00,,,0.00,0.0,meteohub,2013-04-27 06:28:00,
2013-04-26 23:33:00,68.4,39.6,30.06,SW,229,4.0,10.0,35,0.00,,,0.00,0.0,meteohub,2013-04-27 06:33:00,
2013-04-26 23:38:00,68.5,39.0,30.07,SW,230,4.0,10.0,34,0.00,,,0.00,0.0,meteohub,2013-04-27 06:38:00,
2013-04-26 23:43:00,68.5,39.0,30.07,SW,230,7.0,10.0,34,0.00,,,0.00,0.0,meteohub,2013-04-27 06:43:00,
2013-04-26 23:48:00,68.5,39.0,30.07,SW,232,2.0,10.0,34,0.00,,,0.00,0.0,meteohub,2013-04-27 06:48:00,
2013-04-26 23:53:00,68.4,38.8,30.07,SW,232,0.0,10.0,34,0.00,,,0.00,0.0,meteohub,2013-04-27 06:53:00,
2013-04-26 23:58:00,68.4,38.8,30.07,SW,229,0.0,10.0,34,0.00,,,0.00,0.0,meteohub,2013-04-27 06:58:00,